When you browse on this site, cookies collect data to enhance your experience and personalize the content and advertising you see.
Visit our Privacy Policy to learn more. By continuing to use the site, you agree to this use of cookies and data.
  • In Hungary
  • List of Countries
  • For 7 days
  • Water Temperature
  • Satellite Maps
  • Weather Map
  • News
  • Weather Widgets
  • user-avatar
    Login

    Hourly Weather Svitlovodsk

    Today, 17 November, Saturday

    Time Temperature Precipitation Wind Pressure Humidity
    00:00 -3°C° 0 mm 6 mps 767 mmHg 57%
    01:00 -2°C° 0 mm 5 mps 768 mmHg 60%
    02:00 -2°C° 0 mm 5 mps 768 mmHg 63%
    03:00 -2°C° 0 mm 5 mps 768 mmHg 65%
    04:00 -2°C° 0 mm 5 mps 768 mmHg 67%
    05:00 -2°C° 0 mm 5 mps 768 mmHg 68%
    06:00 -2°C° 0.1 mm 5 mps 768 mmHg 68%
    07:00 -2°C° 0.1 mm 5 mps 768 mmHg 69%
    08:00 -2°C° 0.1 mm 5 mps 768 mmHg 69%
    09:00 -2°C° 0.1 mm 5 mps 768 mmHg 63%
    10:00 -1°C° 0.1 mm 4 mps 768 mmHg 57%
    11:00 -1°C° 0.1 mm 4 mps 768 mmHg 52%
    12:00 0°C° 0 mm 4 mps 767 mmHg 47%
    13:00 0°C° 0 mm 4 mps 767 mmHg 43%
    14:00 +1°C° 0 mm 4 mps 767 mmHg 38%
    15:00 +1°C° 0 mm 3 mps 767 mmHg 40%
    16:00 +1°C° 0 mm 3 mps 766 mmHg 42%
    17:00 0°C° 0 mm 3 mps 766 mmHg 44%
    18:00 +1°C° 0 mm 2 mps 766 mmHg 45%
    19:00 -1°C° 0 mm 2 mps 766 mmHg 46%
    20:00 -1°C° 0 mm 2 mps 766 mmHg 47%
    21:00 -1°C° 0 mm 2 mps 766 mmHg 47%
    22:00 -2°C° 0 mm 2 mps 765 mmHg 48%
    23:00 0°C° 0 mm 1 mps 765 mmHg 49%

    Tomorrow, 18 November, Sunday

    Time Temperature Precipitation Wind Pressure Humidity
    00:00 -2°C° 0 mm 2 mps 765 mmHg 50%
    01:00 -2°C° 0 mm 2 mps 765 mmHg 50%
    02:00 -2°C° 0 mm 2 mps 764 mmHg 51%
    03:00 -1°C° 0 mm 1 mps 764 mmHg 51%
    04:00 -1°C° 0 mm 1 mps 763 mmHg 52%
    05:00 -1°C° 0 mm 1 mps 762 mmHg 52%
    06:00 -1°C° 0 mm 1 mps 762 mmHg 52%
    07:00 -1°C° 0 mm 1 mps 762 mmHg 51%
    08:00 -1°C° 0 mm 1 mps 762 mmHg 51%
    09:00 0°C° 0 mm 1 mps 761 mmHg 47%
    10:00 +1°C° 0 mm 1 mps 761 mmHg 43%
    11:00 +3°C° 0 mm 1 mps 761 mmHg 39%
    12:00 +3°C° 0 mm 1 mps 760 mmHg 38%
    13:00 +3°C° 0 mm 1 mps 760 mmHg 37%
    14:00 +4°C° 0 mm 1 mps 759 mmHg 37%
    15:00 +2°C° 0 mm 1 mps 759 mmHg 41%
    16:00 +1°C° 0 mm 1 mps 759 mmHg 46%
    17:00 0°C° 0 mm 1 mps 759 mmHg 51%
    18:00 0°C° 0 mm 1 mps 759 mmHg 52%
    19:00 -1°C° 0 mm 0 mps 758 mmHg 54%
    20:00 -2°C° 0 mm 0 mps 758 mmHg 55%
    21:00 -2°C° 0 mm 0 mps 758 mmHg 56%
    22:00 -2°C° 0 mm 0 mps 758 mmHg 57%
    23:00 -2°C° 0 mm 0 mps 758 mmHg 57%

    Day after tomorrow, 19 November, Monday

    Time Temperature Precipitation Wind Pressure Humidity
    00:00 -2°C° 0 mm 0 mps 758 mmHg 57%
    01:00 -2°C° 0 mm 0 mps 758 mmHg 57%
    02:00 -1°C° 0 mm 1 mps 758 mmHg 57%
    03:00 -1°C° 0 mm 1 mps 758 mmHg 56%
    04:00 -1°C° 0 mm 1 mps 758 mmHg 56%
    05:00 -1°C° 0 mm 1 mps 758 mmHg 55%
    06:00 -3°C° 0 mm 2 mps 758 mmHg 54%
    07:00 -3°C° 0 mm 2 mps 758 mmHg 53%
    08:00 -3°C° 0 mm 2 mps 759 mmHg 52%
    09:00 -2°C° 0 mm 2 mps 759 mmHg 50%
    10:00 +1°C° 0 mm 2 mps 759 mmHg 48%
    11:00 +1°C° 0 mm 3 mps 759 mmHg 46%
    12:00 +1°C° 0 mm 3 mps 759 mmHg 49%
    13:00 +1°C° 0 mm 3 mps 759 mmHg 51%
    14:00 +1°C° 0 mm 3 mps 759 mmHg 53%
    15:00 +1°C° 0.1 mm 3 mps 759 mmHg 59%
    16:00 0°C° 0.1 mm 3 mps 758 mmHg 64%
    17:00 0°C° 0.1 mm 3 mps 758 mmHg 69%
    18:00 0°C° 0.2 mm 3 mps 758 mmHg 74%
    19:00 0°C° 0.2 mm 3 mps 758 mmHg 80%
    20:00 0°C° 0.2 mm 3 mps 758 mmHg 86%
    21:00 0°C° 0.2 mm 3 mps 759 mmHg 88%
    22:00 0°C° 0.2 mm 3 mps 759 mmHg 90%
    23:00 0°C° 0.2 mm 3 mps 759 mmHg 92%

    20 November, Tuesday

    Time Temperature Precipitation Wind Pressure Humidity
    00:00 0°C° 0.1 mm 3 mps 759 mmHg 93%
    01:00 0°C° 0.1 mm 3 mps 759 mmHg 94%
    02:00 0°C° 0.1 mm 3 mps 759 mmHg 94%
    03:00 0°C° 0.3 mm 3 mps 759 mmHg 95%
    04:00 0°C° 0.3 mm 3 mps 759 mmHg 95%
    05:00 0°C° 0.3 mm 3 mps 759 mmHg 95%
    06:00 0°C° 0.1 mm 3 mps 759 mmHg 95%
    07:00 +1°C° 0.1 mm 2 mps 759 mmHg 96%
    08:00 +1°C° 0.1 mm 2 mps 759 mmHg 96%
    09:00 +2°C° 0 mm 2 mps 759 mmHg 94%
    10:00 +2°C° 0 mm 2 mps 759 mmHg 93%
    11:00 +3°C° 0 mm 2 mps 759 mmHg 92%
    12:00 +3°C° 0 mm 2 mps 759 mmHg 91%
    13:00 +3°C° 0 mm 2 mps 759 mmHg 91%
    14:00 +3°C° 0 mm 2 mps 759 mmHg 91%
    15:00 +3°C° 0 mm 2 mps 759 mmHg 92%
    16:00 +3°C° 0 mm 2 mps 759 mmHg 93%
    17:00 +3°C° 0 mm 2 mps 759 mmHg 94%
    18:00 +3°C° 0 mm 2 mps 759 mmHg 94%
    19:00 +3°C° 0 mm 2 mps 758 mmHg 95%
    20:00 +3°C° 0 mm 2 mps 758 mmHg 95%
    21:00 +3°C° 0.1 mm 2 mps 758 mmHg 95%
    22:00 +2°C° 0.1 mm 3 mps 758 mmHg 94%
    23:00 +2°C° 0.1 mm 3 mps 757 mmHg 94%

    21 November, Wednesday

    Time Temperature Precipitation Wind Pressure Humidity
    00:00 +2°C° 0.3 mm 3 mps 757 mmHg 94%
    01:00 +2°C° 0.3 mm 3 mps 756 mmHg 93%
    02:00 +2°C° 0.3 mm 3 mps 756 mmHg 93%
    03:00 +1°C° 0.3 mm 4 mps 755 mmHg 93%
    04:00 +1°C° 0.3 mm 4 mps 755 mmHg 92%
    05:00 +1°C° 0.3 mm 5 mps 755 mmHg 92%
    06:00 +1°C° 0.4 mm 5 mps 754 mmHg 92%
    07:00 +1°C° 0.4 mm 6 mps 754 mmHg 91%
    08:00 +1°C° 0.4 mm 6 mps 753 mmHg 91%
    09:00 +2°C° 1 mm 6 mps 753 mmHg 91%
    10:00 +2°C° 1 mm 6 mps 752 mmHg 91%
    11:00 +2°C° 1 mm 6 mps 752 mmHg 91%
    12:00 +3°C° 1.1 mm 6 mps 751 mmHg 92%
    13:00 +3°C° 1.1 mm 5 mps 751 mmHg 93%
    14:00 +3°C° 1.1 mm 5 mps 750 mmHg 94%
    15:00 +3°C° 0.2 mm 5 mps 750 mmHg 94%
    16:00 +3°C° 0.2 mm 5 mps 750 mmHg 94%
    17:00 +3°C° 0.2 mm 5 mps 750 mmHg 95%
    18:00 +3°C° 0.1 mm 5 mps 750 mmHg 94%
    19:00 +3°C° 0.1 mm 5 mps 750 mmHg 94%
    20:00 +3°C° 0.1 mm 5 mps 750 mmHg 94%
    21:00 +3°C° 0.3 mm 5 mps 750 mmHg 94%
    22:00 +3°C° 0.3 mm 5 mps 750 mmHg 93%
    23:00 +3°C° 0.3 mm 5 mps 751 mmHg 93%

    22 November, Thursday

    Time Temperature Precipitation Wind Pressure Humidity
    00:00 +2°C° 0.5 mm 5 mps 751 mmHg 92%
    01:00 +2°C° 0.5 mm 5 mps 751 mmHg 92%
    02:00 +2°C° 0.5 mm 5 mps 751 mmHg 91%
    03:00 +2°C° 0.6 mm 5 mps 751 mmHg 91%
    04:00 +2°C° 0.6 mm 5 mps 751 mmHg 90%
    05:00 +2°C° 0.6 mm 5 mps 752 mmHg 90%
    06:00 +1°C° 0.6 mm 5 mps 752 mmHg 89%
    07:00 +1°C° 0.6 mm 5 mps 753 mmHg 89%
    08:00 +1°C° 0.6 mm 6 mps 753 mmHg 88%
    09:00 +1°C° 0.5 mm 6 mps 753 mmHg 87%
    10:00 +1°C° 0.5 mm 6 mps 754 mmHg 86%
    11:00 +1°C° 0.5 mm 6 mps 754 mmHg 85%
    12:00 +1°C° 0.3 mm 6 mps 755 mmHg 84%
    13:00 +2°C° 0.3 mm 6 mps 755 mmHg 83%
    14:00 +2°C° 0.3 mm 6 mps 755 mmHg 82%
    15:00 +1°C° 0.2 mm 6 mps 755 mmHg 83%
    16:00 +1°C° 0.2 mm 6 mps 756 mmHg 83%
    17:00 +1°C° 0.2 mm 6 mps 756 mmHg 83%
    18:00 +1°C° 0.1 mm 6 mps 757 mmHg 83%
    19:00 -1°C° 0.1 mm 6 mps 757 mmHg 83%
    20:00 -1°C° 0.1 mm 6 mps 758 mmHg 83%
    21:00 -1°C° 0.1 mm 6 mps 758 mmHg 82%
    22:00 -2°C° 0.1 mm 6 mps 759 mmHg 82%
    23:00 -1°C° 0.1 mm 5 mps 759 mmHg 82%
    Show more